Location: Recife
(8.0585°S, 34.8848°W)
Time: 13:35:31
(UTC-03:00)

Vanguard 1 Rocket - Pass Details

Date: 22 April 2026
Orbit: 655 x 4212 km, 34.3° (Epoch: 12 May)

Event Time Altitude Azimuth Distance (km) Brightness Sun altitude
Rises 02:55:15 0° 322° (NW) 7,043 11.7 -36.5°
Reaches altitude 10° 03:01:34 10° 331° (NNW) 5,380 11.1 -34.9°
Maximum altitude 03:13:06 30° 26° (NNE) 2,720 10.0 -32.1°
Drops below altitude 10° 03:19:54 10° 85° (E) 3,129 11.0 -30.5°
Sets 03:22:28 0° 96° (E) 3,782 11.7 -29.8°
